OBJECT H

Satellite information

Favourite Embed

Satellite Type and Status

UNKNOWNIN ORBIT

Key statistics

Satellite OBJECT H at a glance.

Uptime

434

Days in orbit

Revolutions

≈ 16.4

Per day

Orbit

SSO

Sun Synchronous Orbit

Inclination

97.4

Latest

Satellite identification and parameters

Extended collection of information and parameters for OBJECT H.

Object identification

Identified? True

Debris? False

Object name: OBJECT H

International designator: 2024-039H

Object number (NORAD): 59058

Object ID (CCSDS): 59058

Country: TO BE DETERMINED/UNKNOWN (TBD)

Current information (Y/N): Y

RCS size: SMALL

Orbital parameters

Period: 87.998 minutes

Inclination: 97.3963 deg

SMA: 6553.554 km

Apoapsis: 181.059 km

Periapsis: 169.779 km

RAAN: 104.5474 deg

Eccentricy: 0.0008606

Argument of periapsis: 209.4728 deg

Mean anomaly: 150.6085 deg

Mean motion: 16.36392347 rev/day

Mean motion (dot): 0.07899523 rev/day2

B* drag term: 0.00095238 1/REarth

Two-line elements (TLE)

Creation date: May 7, 2025, 10:56 p.m.

Reference frame: TEME

Reference center: EARTH

Epoch: May 7, 2025, 8:51 p.m. UTC

TLE line 0: 0 OBJECT H

TLE line 1: 1 59058U 24039H 25127.86934146 .07899523 25813-5 95238-3 0 9990

TLE line 2: 2 59058 97.3963 104.5474 0008606 209.4728 150.6085 16.36392347 66879

Live tracking on map

Real-time ground track for satellite OBJECT H.

In-orbit conjunctions

There are no conjunctions computed for OBJECT H, at the moment. Check back to stay up to date, as we update our databases every day.

Go to all conjunctions

Associated space launch

Meteor-M satellites are a new generation of Russian meteorological satellites. Hitchhiking Payloads: SITRO-AIS 13-28, Zorkiy-2M-2, Pars 1 (Iran).

OBJECT H was lifted into orbit during the mission ‘Soyuz 2.1b/Fregat-M | Meteor-M No.2-4 & others’, on board a Soyuz 2.1b/Fregat-M space rocket.

The launch took place on Feb. 29, 2024, 5:43 a.m. from Cosmodrome Site 1S.

For more information about the launch, click the button.

Launch to space Soyuz 2.1b/Fregat-M | Meteor-M No.2-4 & others
Soyuz 2.1b/Fregat-M | Meteor-M No.2-4 & others

Agency: Russian Federal Space Agency (ROSCOSMOS)

Status: Launch Successful

Launch date: Feb. 29, 2024, 5:43 a.m. UTC

Rocket: Soyuz 2.1b/Fregat-M

Launch pad: Cosmodrome Site 1S

Location: Vostochny Cosmodrome, Siberia, Russian Federation

...

Latest news about this satellite

There are no fresh news available about this satellite. Check back as we update our databases every day.


Newsletter sign-up

Weekly statistics, charts and insights to help you stay on top of the space industry.